Home   Weather   Reutlingen   Past weeks

Flag for Germany Past Weather in Reutlingen, Baden-Württemberg, Germany — Yesterday and Last 2 Weeks

Now
50 °F

Drizzle. Broken clouds.


Feels Like: 48 °F
Forecast: 45 / 50 °F
Wind: 5 mph from Southwest

Location: Stuttgart-Echterdingen

Current Time: Feb 21, 2017 at 5:57:42 pm

Latest Report: Feb 21, 2017 at 5:20 pm


Visibility: 5 mi

Pressure: 30.04 "Hg

Humidity: 94%

Dew Point: 48 °F

Location of ReutlingenLocation

Past Weather in Reutlingen — Graph

°F

Reutlingen Temperature Yesterday

Maximum temperature yesterday: 48 °F (at 1:50 pm)
Minimum temperature yesterday: 41 °F (at 12:20 am)
Average temperature yesterday: 44 °F

High & Low Weather Summary for the Past Weeks

 TemperatureHumidityPressure
High59 °F (Feb 16, 2:50 pm)100% (Feb 11, 3:20 am)30.54 "Hg (Feb 11, 3:20 am)
Low23 °F (Feb 11, 5:20 am)47% (Feb 15, 3:50 pm)29.98 "Hg (Feb 7, 1:50 pm)
Average38 °F82%30.22 "Hg
* Reported Feb 6 4:20 pm — Feb 21 4:50 pm, Reutlingen, Weather by CustomWeather, © 2017

Note: Actual official high and low records may vary slightly from our data, if they occured in-between our weather recording intervals... More about our weather records

Advertising

Reutlingen Weather History for the Previous 24 Hours

Scroll right to see more
 ConditionsComfort  
Time TempWeatherWind HumidityBarometerVisibility
4:50 pm
Tue, Feb 21
50 °FLight rain. Broken clouds.6 mph94%30.04 "HgN/A
4:20 pm50 °FDrizzle. Partly sunny.6 mph94%30.04 "HgN/A
3:50 pm50 °FDrizzle. Broken clouds.9 mph94%30.04 "Hg4 mi
3:20 pm50 °FDrizzle. Partly sunny.8 mph94%30.04 "Hg3 mi
2:50 pm50 °FDrizzle. Partly sunny.8 mph94%30.04 "Hg4 mi
2:20 pm50 °FDrizzle. Broken clouds.8 mph94%30.04 "Hg5 mi
1:50 pm50 °FDrizzle. Broken clouds.9 mph94%30.04 "HgN/A
1:20 pm50 °FDrizzle. Partly sunny.12 mph94%30.04 "HgN/A
12:50 pm50 °FDrizzle. Partly sunny.9 mph94%30.04 "Hg6 mi
12:20 pm48 °FDrizzle. Partly sunny.8 mph100%30.04 "Hg2 mi
11:50 am48 °FDrizzle. Broken clouds.9 mph94%30.04 "HgN/A
11:20 am48 °FDrizzle. Broken clouds.8 mph94%30.04 "Hg4 mi
10:50 am48 °FLight rain. Partly sunny.9 mph94%30.04 "HgN/A
10:20 am48 °FLight rain. Partly sunny.9 mph87%30.04 "HgN/A
9:50 am48 °FLight rain. Partly sunny.12 mph87%30.01 "HgN/A
9:20 am46 °FDrizzle. Broken clouds.10 mph93%30.04 "Hg2 mi
8:50 am46 °FLight rain. Partly sunny.10 mph93%30.04 "HgN/A
8:20 am46 °FLight rain. Broken clouds.13 mph93%30.01 "HgN/A
7:50 am46 °FLight rain. Broken clouds.14 mph93%30.01 "HgN/A
7:20 am46 °FLight rain. Partly cloudy.13 mph87%30.01 "HgN/A
6:50 am48 °FPartly cloudy.14 mph82%30.01 "HgN/A
6:20 am48 °FPassing clouds.13 mph82%30.01 "HgN/A
5:50 am46 °FPassing clouds.13 mph87%30.01 "HgN/A
5:20 am46 °FPartly cloudy.15 mph87%30.01 "HgN/A
4:50 am46 °FPassing clouds.13 mph87%30.01 "HgN/A
4:20 am46 °FPartly cloudy.12 mph87%30.01 "HgN/A
3:50 am46 °FPartly cloudy.14 mph87%30.04 "HgN/A
3:20 am46 °FPassing clouds.13 mph87%30.04 "HgN/A
2:50 am46 °FLight rain. Passing clouds.10 mph87%30.04 "HgN/A
2:20 am46 °FPassing clouds.9 mph87%30.04 "HgN/A
1:50 am46 °FPassing clouds.8 mph82%30.07 "HgN/A
1:20 am46 °FPassing clouds.10 mph82%30.07 "HgN/A
12:50 am46 °FPassing clouds.12 mph82%30.07 "HgN/A
12:20 am46 °FPassing clouds.12 mph82%30.07 "HgN/A
11:50 pm
Mon, Feb 20
45 °FPassing clouds.9 mph87%30.07 "HgN/A
11:20 pm45 °FPassing clouds.10 mph87%30.07 "HgN/A
10:50 pm45 °FPassing clouds.10 mph87%30.09 "HgN/A
10:20 pm45 °FPassing clouds.10 mph87%30.07 "HgN/A
9:50 pm45 °FPassing clouds.7 mph87%30.09 "HgN/A
9:20 pm45 °FPassing clouds.7 mph87%30.09 "HgN/A
8:50 pm45 °FLight rain. Partly cloudy.7 mph87%30.09 "HgN/A
8:20 pm45 °FRain. Partly cloudy.8 mph87%30.09 "Hg5 mi
7:50 pm45 °FLight rain. Partly cloudy.13 mph87%30.09 "HgN/A
7:20 pm45 °FRain. Partly cloudy.10 mph87%30.09 "Hg5 mi
6:50 pm46 °FLight rain. Passing clouds.10 mph76%30.09 "HgN/A
6:20 pm46 °FLight rain. Passing clouds.10 mph76%30.09 "HgN/A
5:50 pm46 °FPartly sunny.12 mph76%30.09 "HgN/A
5:20 pm46 °FPartly sunny.13 mph76%30.09 "HgN/A
Weather by CustomWeather, © 2017

See weather overviewHow to use our weather pages